Greenville Downtown, SC

7:32 AM EDT on April 25, 2017 (GMT -0400)
Greenville Downtown

Weather History for KGMU - April, 2014

Change the Weather History Date:

Monday, April 7, 2014

  Actual Average Record
Temperature  
Mean Temperature 50 °F -  
Max Temperature 57 °F 68 °F 84 °F (1999)
Min Temperature 46 °F 49 °F 28 °F (2007)
Degree Days  
Heating Degree Days 14    
Moisture  
Dew Point 47 °F    
Average Humidity 91    
Maximum Humidity 97    
Minimum Humidity 62    
Precipitation  
Precipitation 2.65 in - - ()
Sea Level Pressure  
Sea Level Pressure 29.87 in    
Wind  
Wind Speed 10 mph (NE)    
Max Wind Speed 18 mph    
Max Gust Speed 21 mph    
Visibility 4 miles    
Events Rain    
Averages and records for this station are not official NWS values.
T = Trace of Precipitation, MM = Missing Value Source: NWS Daily Summary

Daily Weather History Graph

Daily Weather History Graph

Search for Another Location

Airport or City:

Trip Planner

Search our weather history database for the weather conditions in past years. The results will help you decide how hot, cold, wet, or windy it might be!

Date:

Astronomy

Apr. 07, 2014 Rise Set
Actual Time 7:08 AM EDT 7:55 PM EDT
Civil Twilight 6:42 AM EDT 8:21 PM EDT
Nautical Twilight 6:12 AM EDT 8:51 PM EDT
Astronomical Twilight 5:41 AM EDT 9:22 PM EDT
Moon 1:08 PM EDT (4/7) 2:25 AM EDT (4/7)
Length of Visible Light 13h 38m
Length of Day
12h 47m
First Quarter, 53% of the Moon is Illuminated
Apr 7
First Quarter
Apr 15
Full
Apr 22
Last Quarter
Apr 29
New
May 6
First Quarter

Hourly Weather History & Observations

Time (EDT) Temp. Dew Point Humidity Pressure Visibility Wind Dir Wind Speed Gust Speed Precip Events Conditions
12:19 AM 54.0 °F 41.0 °F 62% 30.06 in 10.0 mi ENE 6.9 mph - N/A   Overcast
12:53 AM 54.0 °F 41.0 °F 62% 30.03 in 10.0 mi ENE 8.1 mph - N/A   Overcast
1:53 AM 52.0 °F 43.0 °F 71% 30.00 in 10.0 mi NE 9.2 mph - 0.00 in Rain Light Rain
2:53 AM 48.9 °F 45.0 °F 86% 29.99 in 5.0 mi NNE 10.4 mph - 0.07 in Rain Rain
3:38 AM 48.0 °F 45.0 °F 89% 29.94 in 5.0 mi NE 13.8 mph - 0.09 in Rain Light Rain
3:53 AM 48.0 °F 45.0 °F 89% 29.95 in 6.0 mi NE 11.5 mph - 0.10 in Rain Light Rain
4:03 AM 48.0 °F 45.0 °F 89% 29.95 in 3.0 mi NNE 12.7 mph - 0.07 in Rain Heavy Rain
4:53 AM 48.0 °F 45.0 °F 89% 29.95 in 4.0 mi NE 12.7 mph - 0.27 in Rain Heavy Rain
5:15 AM 48.0 °F 45.0 °F 89% 29.95 in 2.5 mi NE 13.8 mph - 0.12 in Rain Heavy Rain
5:23 AM 48.0 °F 45.0 °F 89% 29.93 in 3.0 mi NE 13.8 mph - 0.17 in Rain Heavy Rain
5:33 AM 48.0 °F 45.0 °F 89% 29.94 in 4.0 mi NNE 12.7 mph - 0.19 in Rain Rain
5:38 AM 48.0 °F 45.0 °F 89% 29.94 in 4.0 mi NE 15.0 mph - 0.22 in Rain Heavy Rain
5:53 AM 48.0 °F 45.0 °F 89% 29.96 in 4.0 mi North 9.2 mph - 0.29 in Rain Heavy Rain
6:05 AM 46.9 °F 45.0 °F 93% 29.94 in 2.5 mi NE 15.0 mph 19.6 mph 0.09 in Rain Heavy Rain
6:12 AM 46.9 °F 45.0 °F 93% 29.95 in 3.0 mi NNE 11.5 mph - 0.14 in Rain Heavy Rain
6:32 AM 46.9 °F 45.0 °F 93% 29.92 in 4.0 mi NE 15.0 mph - 0.23 in Rain Heavy Rain
6:53 AM 46.9 °F 45.0 °F 93% 29.92 in 3.0 mi NE 18.4 mph - 0.36 in Rain Heavy Rain
7:26 AM 46.9 °F 45.0 °F 93% 29.97 in 3.0 mi North 10.4 mph 19.6 mph 0.18 in Rain Heavy Rain
7:35 AM 46.9 °F 45.0 °F 93% 29.95 in 2.5 mi NNE 12.7 mph 19.6 mph 0.28 in Rain Heavy Rain
7:39 AM 46.9 °F 45.0 °F 93% 29.94 in 3.0 mi NE 15.0 mph 20.7 mph 0.30 in Rain Heavy Rain
7:53 AM 46.9 °F 44.1 °F 90% 29.93 in 4.0 mi NE 16.1 mph - 0.37 in Rain Heavy Rain
8:08 AM 46.9 °F 45.0 °F 93% 29.99 in 3.0 mi NNW 9.2 mph - 0.10 in Rain Heavy Rain
8:18 AM 46.9 °F 45.0 °F 93% 29.95 in 2.5 mi ENE 15.0 mph - 0.21 in Rain Heavy Rain
8:30 AM 46.9 °F 45.0 °F 93% 29.96 in 3.0 mi NNE 11.5 mph - 0.26 in Rain Heavy Rain
8:53 AM 46.9 °F 44.1 °F 90% 29.98 in 2.0 mi NNE 13.8 mph - 0.40 in Rain Heavy Rain
9:00 AM 46.9 °F 45.0 °F 93% 30.01 in 1.8 mi NNW 11.5 mph - 0.05 in Rain Heavy Rain
9:23 AM 46.9 °F 45.0 °F 93% 30.01 in 2.5 mi North 8.1 mph - 0.23 in Rain Heavy Rain
9:46 AM 46.9 °F 45.0 °F 93% 29.98 in 4.0 mi ENE 6.9 mph - 0.36 in Rain Heavy Rain
9:53 AM 48.0 °F 45.0 °F 89% 29.97 in 5.0 mi ENE 8.1 mph - 0.37 in Rain Rain
10:53 AM 48.0 °F 46.0 °F 93% 29.90 in 10.0 mi East 11.5 mph 19.6 mph 0.03 in Rain Light Rain
11:05 AM 48.0 °F 45.0 °F 89% 29.89 in 10.0 mi ESE 9.2 mph - 0.01 in Rain Light Rain
11:53 AM 48.9 °F 46.0 °F 90% 29.88 in 10.0 mi East 9.2 mph - 0.02 in Rain Light Rain
12:53 PM 48.9 °F 46.0 °F 90% 29.89 in 3.0 mi East 8.1 mph - 0.16 in Rain Heavy Rain
1:04 PM 48.9 °F 46.9 °F 93% 29.89 in 2.5 mi East 6.9 mph - 0.07 in Rain Heavy Rain
1:14 PM 48.9 °F 46.0 °F 90% 29.87 in 3.0 mi East 8.1 mph - 0.11 in Rain Heavy Rain
1:50 PM 50.0 °F 48.2 °F 94% 29.84 in 10.0 mi Variable 4.6 mph - 0.13 in Rain Light Rain
1:53 PM 50.0 °F 48.0 °F 93% 29.85 in 10.0 mi East 6.9 mph - 0.13 in Rain Light Rain
2:53 PM 51.1 °F 48.9 °F 92% 29.80 in 10.0 mi NNE 8.1 mph - 0.01 in   Overcast
3:53 PM 51.1 °F 48.9 °F 92% 29.77 in 8.0 mi ENE 6.9 mph - 0.00 in   Overcast
4:43 PM 52.0 °F 50.0 °F 93% 29.75 in 2.5 mi NNE 5.8 mph - 0.00 in Rain Light Rain
4:53 PM 52.0 °F 50.0 °F 93% 29.73 in 2.5 mi NE 6.9 mph - 0.02 in Rain Heavy Rain
5:04 PM 52.0 °F 51.1 °F 97% 29.73 in 5.0 mi NNE 6.9 mph - 0.01 in Rain Light Rain
5:53 PM 53.1 °F 51.1 °F 93% 29.71 in 7.0 mi NE 5.8 mph - 0.01 in   Overcast
6:41 PM 53.1 °F 52.0 °F 96% 29.71 in 2.5 mi East 3.5 mph - N/A   Overcast
6:53 PM 53.1 °F 52.0 °F 96% 29.71 in 3.0 mi Calm Calm - N/A   Overcast
7:12 PM 53.1 °F 51.1 °F 93% 29.70 in 1.2 mi NNE 4.6 mph - N/A   Mist
7:28 PM 52.0 °F 51.1 °F 97% 29.71 in 0.8 mi North 4.6 mph - N/A   Mist
7:53 PM 52.0 °F 50.0 °F 93% 29.71 in 0.8 mi North 4.6 mph - 0.00 in Rain Light Rain
8:04 PM 52.0 °F 51.1 °F 97% 29.71 in 1.5 mi North 3.5 mph - 0.01 in Rain Light Rain
8:14 PM 52.0 °F 51.1 °F 97% 29.71 in 2.0 mi Calm Calm - 0.01 in Rain Light Rain
8:53 PM 53.1 °F 52.0 °F 96% 29.71 in 2.5 mi Calm Calm - 0.02 in Rain Light Rain
9:53 PM 55.0 °F 53.1 °F 93% 29.71 in 2.0 mi WNW 4.6 mph - 0.01 in Rain Light Rain
10:09 PM 55.0 °F 53.1 °F 93% 29.72 in 3.0 mi West 4.6 mph - 0.00 in Rain Light Rain
10:53 PM 54.0 °F 53.1 °F 97% 29.71 in 4.0 mi West 3.5 mph - 0.01 in Rain Light Rain
11:53 PM 54.0 °F 53.1 °F 97% 29.68 in 5.0 mi Calm Calm - 0.00 in   Overcast